Location: Bannatyne
(13.0833°N, 59.5333°W)
Time: 14:25:07
(UTC+00:00)

ISS - Pass Details

Date: 18 June 2021
Orbit: 419 x 421 km, 51.6° (Epoch: 01 August)

Event Time Altitude Azimuth Distance (km) Brightness Sun altitude
Rises 07:37:50 0° 130° (SE) 2,349 0.2 -25.3°
Enters shadow 08:35:23 -72° 231° (SW) 12,592 3.7 -13.3°
Maximum altitude 09:14:52 72° 127° (SE) 438 -3.5 -4.7°
